Regional Weather Roundup
Issued by NWS Albany, NY

Home | Current Version | Previous Version | Text Only | Print | Product List | Glossary On
Versions: 1 2 3 4 5 6 7 8 9 10 11 12 13 14 15 16 17 18 19 20 21 22 23 24 25 26 27 28
000
ASUS41 KALY 200010
RWRALY

NEW YORK STATE HOURLY WEATHER ROUNDUP
NATIONAL WEATHER SERVICE ALBANY NY
700 PM EST SUN NOV 19 2017

NOTE: "FAIR" INDICATES FEW OR NO CLOUDS BELOW 12,000 FEET WITH NO
SIGNIFICANT WEATHER AND/OR NO OBSTRUCTIONS TO VISIBILITY.

NYZ032-033-038>043-046>054-057>066-NYZ062>081-082-084-200100-
EAST


CITY           SKY/WX    TMP DP  RH WIND       PRES   REMARKS
ALBANY         MOCLDY    36  26  67 W9        29.64R WCI  29
GLENS FALLS    CLOUDY    35  23  61 W8        29.60R WCI  29
POUGHKEEPSIE   CLEAR     40  21  46 W12       29.65R WCI  33
NEWBURGH       PTCLDY    39  27  60 NW12G21   29.66R WCI  32
MONTGOMERY     CLEAR     39  25  57 W8        29.67R WCI  33
WHITE PLAINS     N/A     42  24  49 W13G21    29.66R
ISLIP          PTCLDY    44  25  47 NW16G24   29.68R
NEW YORK CITY  MOCLDY    47  26  44 NW13      29.69R
CENTRAL PARK   PTCLDY    45  24  43 W9        29.71
$$

NYZ005>009-017-018-044>046-055-056-200100-
CENTRAL


CITY           SKY/WX    TMP DP  RH WIND       PRES   REMARKS
FULTON         CLOUDY    37  27  67 NW13G24   29.68R WCI  29
SYRACUSE       LGT SNOW  33  31  92 W12       29.68R FOG     WCI  24
ROME           CLOUDY    34  29  82 W8        29.67R WCI  27
ELMIRA         CLOUDY    37  27  67 W9        29.72R WCI  30
BINGHAMTON     LGT SNOW  31  28  89 W8        29.65R FOG     WCI  23
MONTICELLO     MOCLDY    34  26  72 W14       29.65R WCI  25
$$

NYZ026>034-041>043-087-200100-
NORTH


CITY           SKY/WX    TMP DP  RH WIND       PRES   REMARKS
WATERTOWN      CLOUDY    33  27  78 NW12      29.67R WCI  24
FORT DRUM      NOT AVBL
OGDENSBURG     MOCLDY    31  28  88 W6        29.64R WCI  25
MASSENA        CLOUDY    30  24  78 W16G23    29.64R WCI  19
SARANAC LAKE   CLOUDY    26  22  84 W9        29.52R WCI  17
PLATTSBURGH    CLOUDY    32  22  66 NW10G21   29.55F WCI  24
$$

NYZ001>004-010>016-019>021-085-200100-
WEST


CITY           SKY/WX    TMP DP  RH WIND       PRES   REMARKS
NIAGARA FALLS  CLOUDY    34  23  64 W15       29.79R WCI  24
BUFFALO        FLURRIES  33  24  69 W16G25    29.78R WCI  23
DUNKIRK        CLOUDY    35  25  66 W20G30    29.82R WCI  24
JAMESTOWN      LGT SNOW  28  27  93 W13       29.78R FOG     WCI  18
WELLSVILLE     SNOW      30  26  85 NW14      29.72R VSB 1/2 WCI  19
ROCHESTER      FLURRIES  35  31  85 W10       29.73R WCI  27
PENN YAN       LGT SNOW  34  26  72 W16G28    29.73R WCI  24
$$

             KEY
       WCI = WIND CHILL INDEX
       VSB = VISIBILITY
       HX  = HEAT INDEX
$$




USA.gov is the U.S. government's official web portal to all federal, state and local government web resources and services.